Location: Penzberg
(47.7615°N, 11.3159°E)
Time: 15:09:16
(UTC+01:00)

ISS - Pass Details

Date: 04 January 2018
Orbit: 402 x 407 km, 51.6° (Epoch: 21 January)

Event Time Altitude Azimuth Distance (km) Brightness Sun altitude
Exits shadow 05:20:34 21° 63° (ENE) 977 -1.4 -26.4°
Drops below altitude 10° 05:21:48 10° 65° (ENE) 1,471 -0.2 -26.1°
Sets 05:23:56 0° 67° (ENE) 2,351 1.0 -25.8°
